Whiteman AFB, MO

10:43 PM CDT on July 21, 2017 (GMT -0500)
Whiteman Air Force Base

Weather History for KSZL - March, 2013

Change the Weather History Date:

Sunday, March 31, 2013

  Actual Average Record
Temperature  
Mean Temperature 54 °F -  
Max Temperature 65 °F 60 °F 82 °F (2012)
Min Temperature 43 °F 39 °F 28 °F (2004)
Degree Days  
Heating Degree Days 10    
Growing Degree Days 4 (Base 50)    
Moisture  
Dew Point 43 °F    
Average Humidity 79    
Maximum Humidity 100    
Minimum Humidity 39    
Precipitation  
Precipitation 0.00 in - - ()
Sea Level Pressure  
Sea Level Pressure 29.93 in    
Wind  
Wind Speed 4 mph (NW)    
Max Wind Speed 17 mph    
Max Gust Speed 24 mph    
Visibility 5 miles    
Events Fog    
Averages and records for this station are not official NWS values.
T = Trace of Precipitation, MM = Missing Value Source: NWS Daily Summary

Daily Weather History Graph

Daily Weather History Graph

Search for Another Location

Airport or City:

Trip Planner

Search our weather history database for the weather conditions in past years. The results will help you decide how hot, cold, wet, or windy it might be!

Date:

Astronomy

Mar. 31, 2013 Rise Set
Actual Time 7:00 AM CDT 7:37 PM CDT
Civil Twilight 6:33 AM CDT 8:03 PM CDT
Nautical Twilight 6:01 AM CDT 8:35 PM CDT
Astronomical Twilight 5:29 AM CDT 9:07 PM CDT
Moon No Moon Rise 9:51 AM CDT (3/31)
Length of Visible Light 13h 30m
Length of Day
12h 36m
Waning Gibbous, 77% of the Moon is Illuminated
Mar 31
Waning Gibbous
Apr 2
Last Quarter
Apr 10
New
Apr 18
First Quarter
Apr 25
Full

Hourly Weather History & Observations

Time (CDT) Temp. Windchill Dew Point Humidity Pressure Visibility Wind Dir Wind Speed Gust Speed Precip Events Conditions
12:38 AM 44.6 °F - 44.6 °F 100% 29.91 in 0.2 mi SSW 2.3 mph - N/A Fog Fog
12:53 AM 44.6 °F - 44.6 °F 100% 29.92 in 1.2 mi WSW 1.2 mph - N/A   Mostly Cloudy
12:58 AM 43.3 °F - 43.3 °F 100% 29.94 in 1.5 mi NW 1.2 mph - N/A   Scattered Clouds
1:03 AM 44.6 °F - 44.6 °F 100% 29.92 in 1.0 mi Calm Calm - N/A   Scattered Clouds
1:08 AM 44.6 °F - 44.6 °F 100% 29.92 in 0.8 mi Calm Calm - N/A   Scattered Clouds
1:58 AM 44.1 °F - 44.1 °F 100% 29.94 in 0.8 mi Calm Calm - N/A   Partly Cloudy
2:08 AM 44.6 °F - 44.6 °F 100% 29.92 in 0.8 mi Calm Calm - N/A   Mist
2:13 AM 44.6 °F - 44.6 °F 100% 29.92 in 1.0 mi Calm Calm - N/A   Scattered Clouds
2:18 AM 44.6 °F - 44.6 °F 100% 29.92 in 1.8 mi Calm Calm - N/A   Scattered Clouds
2:23 AM 44.6 °F - 44.6 °F 100% 29.91 in 4.0 mi Calm Calm - N/A   Scattered Clouds
2:33 AM 44.6 °F - 44.6 °F 100% 29.92 in 2.5 mi NNE 2.3 mph - N/A   Scattered Clouds
2:43 AM 44.6 °F - 44.6 °F 100% 29.91 in 1.2 mi NNE 1.2 mph - N/A   Mostly Cloudy
2:48 AM 44.6 °F - 44.6 °F 100% 29.91 in 0.5 mi NNE 1.2 mph - N/A Fog Fog
2:58 AM 45.3 °F - 45.3 °F 100% 29.94 in 0.5 mi NNW 2.3 mph - N/A Fog Fog
3:58 AM 45.1 °F 43.7 °F 45.1 °F 100% 29.94 in 0.2 mi NW 3.5 mph - N/A Fog Fog
4:58 AM 45.5 °F - 45.5 °F 100% 29.93 in 0.5 mi WNW 2.3 mph - N/A Fog Fog
5:28 AM 44.6 °F 42.2 °F 44.6 °F 100% 29.92 in 1.8 mi South 4.6 mph - N/A   Mostly Cloudy
5:33 AM 46.4 °F 44.3 °F 46.4 °F 100% 29.92 in 3.0 mi South 4.6 mph - N/A   Scattered Clouds
5:58 AM 45.7 °F 44.4 °F 45.7 °F 100% 29.93 in 4.0 mi West 3.5 mph - N/A   Mostly Cloudy
6:53 AM 44.6 °F 41.4 °F 44.6 °F 100% 29.95 in 0.5 mi West 5.8 mph - N/A Fog Fog
6:58 AM 45.3 °F 43.0 °F 45.3 °F 100% 29.96 in 0.2 mi West 4.6 mph - N/A Fog Fog
7:58 AM 45.0 °F - 45.0 °F 100% 29.97 in 0.2 mi WSW 2.3 mph - N/A Fog Fog
8:08 AM 46.4 °F - 46.4 °F 100% 29.96 in 0.5 mi West 2.3 mph - N/A Fog Fog
8:13 AM 46.4 °F 44.3 °F 46.4 °F 100% 29.96 in 1.0 mi West 4.6 mph - N/A   Clear
8:18 AM 48.2 °F - 48.2 °F 100% 29.96 in 4.0 mi WNW 4.6 mph - N/A   Clear
8:58 AM 49.5 °F - 49.5 °F 100% 29.96 in 10.0 mi NNW 11.5 mph - N/A   Clear
9:58 AM 53.6 °F - 53.4 °F 99% 29.94 in 10.0 mi North 8.1 mph - N/A   Clear
10:58 AM 58.1 °F - 49.1 °F 72% 29.94 in 10.0 mi NW 9.2 mph - N/A   Clear
11:58 AM 61.0 °F - 45.9 °F 58% 29.94 in 10.0 mi NNW 10.4 mph - N/A   Clear
12:58 PM 63.5 °F - 39.4 °F 41% 29.94 in 10.0 mi Variable 6.9 mph - N/A   Clear
1:31 PM 64.4 °F - 41.0 °F 42% 29.92 in 10.0 mi NW 13.8 mph 18.4 mph N/A   Scattered Clouds
1:58 PM 64.2 °F - 42.1 °F 44% 29.93 in 10.0 mi West 10.4 mph 23.0 mph N/A   Mostly Cloudy
2:43 PM 66.2 °F - 41.0 °F 40% 29.91 in 10.0 mi WNW 17.3 mph 21.9 mph N/A   Mostly Cloudy
2:58 PM 64.6 °F - 38.8 °F 39% 29.91 in 10.0 mi West 15.0 mph 24.2 mph N/A   Mostly Cloudy
3:39 PM 64.4 °F - 41.0 °F 42% 29.90 in 10.0 mi NW 11.5 mph 24.2 mph N/A   Mostly Cloudy
3:58 PM 64.0 °F - 40.3 °F 42% 29.91 in 10.0 mi WNW 13.8 mph 23.0 mph N/A   Overcast
4:00 PM 64.4 °F - 41.0 °F 42% 29.90 in 10.0 mi NW 13.8 mph 23.0 mph N/A   Overcast
4:58 PM 63.0 °F - 42.3 °F 47% 29.92 in 10.0 mi NNW 16.1 mph 23.0 mph N/A   Partly Cloudy
5:58 PM 61.5 °F - 38.7 °F 43% 29.93 in 10.0 mi NNW 15.0 mph 24.2 mph N/A   Clear
6:58 PM 58.8 °F - 36.1 °F 43% 29.94 in 10.0 mi NNW 16.1 mph - N/A   Clear
7:58 PM 53.6 °F - 36.0 °F 51% 29.96 in 10.0 mi NNW 8.1 mph - N/A   Clear
8:58 PM 50.7 °F - 35.4 °F 56% 29.96 in 10.0 mi NNW 8.1 mph - N/A   Clear
9:58 PM 50.0 °F - 33.6 °F 53% 29.97 in 10.0 mi North 6.9 mph - N/A   Clear
10:58 PM 47.8 °F - 32.5 °F 55% 29.97 in 10.0 mi North 2.3 mph - N/A   Clear
11:58 PM 44.2 °F 41.0 °F 34.2 °F 68% 29.97 in 10.0 mi NNE 5.8 mph - N/A   Partly Cloudy